Home > Weather > Völkermarkt > Past weeks

Flag for Austria Past Weather in Völkermarkt, Carinthia, Austria — Yesterday and Last 2 Weeks

Now
66 °F

Overcast.


Feels Like: 66 °F
Forecast: 62 / 82 °F
Wind: N/A

Location: Klagenfurt-Flughafen

Current Time: Jul 25, 2016 at 10:08:23 PM

Latest Report: Jul 25, 2016 at 9:00 PM


Visibility: 5 mi

Pressure: 30.06 "Hg

Humidity: 94%

Dew Point: 64 °F

Location of VölkermarktLocation

Past Weather in Völkermarkt — Graph

°F

Völkermarkt Temperature Yesterday

Maximum temperature yesterday: 84 °F (at 2:00 PM)
Minimum temperature yesterday: 63 °F (at 6:00 AM)
Average temperature yesterday: 74 °F

High & Low Weather Summary for the Past Weeks

 TemperatureHumidityPressure
High91 °F (Jul 11, 5:00 PM)95% (Jul 22, 3:00 AM)30.20 "Hg (Jul 22, 3:00 AM)
Low48 °F (Jul 16, 6:00 AM)31% (Jul 14, 5:00 PM)29.73 "Hg (Jul 12, 5:00 PM)
Average70 °F68%29.99 "Hg
* Reported Jul 10 8:00 PM — Jul 25 8:00 PM, Völkermarkt, Weather by CustomWeather, © 2016

Note: Actual official high and low records may vary slightly from our data, if they occured in-between our weather recording intervals... More about our weather records

Advertising

Völkermarkt Weather History for the Previous 24 Hours

Scroll right to see more
 ConditionsComfort  
Time TempWeatherWind HumidityBarometerVisibility
8:00 PM
Mon, Jul 25
66 °FRain showers. Overcast.N/A92%30.05 "Hg14 mi
7:00 PM66 °FSprinkles. Overcast.N/A91%30.05 "Hg9 mi
6:00 PM66 °FThundershowers. Overcast.7 mph88%30.03 "Hg14 mi
5:00 PM79 °FOvercast.5 mph60%29.95 "Hg19 mi
4:00 PM81 °FPartly sunny.N/A53%29.95 "Hg18 mi
3:00 PM80 °FPartly sunny.N/A53%29.96 "Hg19 mi
2:00 PM78 °FPartly sunny.N/A57%29.98 "Hg22 mi
1:00 PM76 °FPartly sunny.N/A57%30.01 "Hg15 mi
12:00 PM75 °FScattered clouds.N/A63%30.03 "Hg25 mi
11:00 AM72 °FScattered clouds.N/A72%30.04 "Hg18 mi
10:00 AM70 °FPassing clouds.3 mph76%30.04 "Hg22 mi
9:00 AM67 °FScattered clouds.N/A82%30.06 "Hg19 mi
8:00 AM65 °FLow clouds.N/A89%30.09 "Hg22 mi
7:00 AM64 °FRain showers. Low clouds.N/A92%30.10 "Hg10 mi
6:00 AM63 °FSprinkles. Low clouds.N/A94%30.11 "Hg6 mi
5:00 AM64 °FLow clouds.N/A95%30.11 "Hg1 mi
4:00 AM71 °FLow clouds.N/A78%30.04 "Hg17 mi
3:00 AM71 °FPassing clouds.N/A77%30.02 "Hg18 mi
2:00 AM70 °FPassing clouds.N/A83%30.01 "Hg19 mi
1:00 AM72 °FPassing clouds.N/A76%30.01 "Hg19 mi
12:00 AM72 °FLow clouds.N/A80%30.01 "Hg18 mi
11:00 PM
Sun, Jul 24
74 °FLow clouds.N/A75%30.01 "Hg19 mi
10:00 PM74 °FPassing clouds.N/A74%30.00 "Hg17 mi
Weather by CustomWeather, © 2016

See weather overviewHow to use our weather pages